Location: ????????
(38.4362°N, 22.8767°E)
Time: 19:51:07
(UTC+00:00)

SL-16 R/B - Pass Details

Date: 23 April 2024
Orbit: 985 x 1006 km, 99.7° (Epoch: 26 May)

Event Time Altitude Azimuth Distance (km) Brightness Sun altitude
Exits shadow 02:00:27 30° 224° (SW) 1,709 3.2 -18.6°
Maximum altitude 02:02:28 37° 262° (W) 1,498 3.0 -18.3°
Drops below altitude 10° 02:08:11 10° 328° (NNW) 2,775 4.9 -17.4°
Sets 02:10:54 0° 337° (NNW) 3,731 5.7 -16.9°
